GFSSGP_prec_cloud_276.txt.gz
Cloud_Cover
0 5 65 100 100 100 66 24 21 60 97 68 100 51 42 30 54 16 6 100 100 85 99 100 5 0 2 4 5 0 0 2 4 4 2 0 0 0 0 0 0 0 0 0 0 0 0 0 0
0 0 4 50 100 100 100 64 82 82 6 5 4 1 79 55 85 5 2 47 98 88 100 100 61 3 0 5 2 5 3 0 0 0 0 0 4 5 3 0 8 3 0 0 0 0 0 0 0
0 0 1 86 49 100 99 69 27 99 68 42 18 5 5 50 84 28 19 26 66 41 38 93 99 18 0 0 5 5 5 0 1 0 0 2 0 0 1 0 0 0 0 0 0 0 0 0 0
0 0 0 36 34 99 100 100 13 10 78 32 70 98 47 10 7 66 100 100 100 63 18 6 27 89 18 4 0 3 0 4 7 1 0 2 0 0 5 1 0 3 5 3 0 0 0 0 0
0 0 28 75 68 22 100 100 100 94 68 76 100 100 83 70 100 100 100 100 100 100 100 100 98 63 88 14 5 8 4 5 23 5 0 3 5 0 0 0 0 0 0 2 4 4 4 0 0
0 0 19 5 44 97 100 44 48 100 100 100 100 100 98 100 100 100 100 100 100 100 73 24 50 100 96 78 9 5 4 2 4 5 5 5 4 0 0 0 0 0 0 0 0 0 0 0 0
0 5 4 52 97 1 32 92 100 90 100 100 100 100 100 98 74 67 41 100 100 100 55 32 36 10 68 82 89 91 82 18 0 0 0 1 3 0 0 0 0 0 0 0 0 0 0 0 0
0 86 100 100 5 2 95 100 100 99 44 33 100 100 100 100 83 44 66 98 19 62 59 58 41 19 25 25 5 16 3 0 0 0 0 0 0 0 0 0 0 0 0 0 0 0 0 0 0
0 7 93 60 4 1 57 81 50 5 0 52 100 100 78 80 100 82 2 5 6 45 85 88 94 96 60 33 68 56 79 57 5 4 0 0 11 3 0 0 0 0 0 0 0 0 0 0 0
0 4 5 33 2 0 5 8 12 3 0 0 1 98 84 100 100 82 5 37 5 91 48 92 100 100 95 58 66 29 5 11 21 18 19 28 23 20 0 0 0 0 0 0 0 0 0 0 0
0 4 1 0 0 0 2 5 5 0 0 0 0 0 94 100 100 100 98 48 84 99 100 100 65 87 98 52 66 41 21 34 32 21 24 30 7 13 0 0 0 0 0 0 0 0 0 0 0
0 0 0 0 0 0 2 5 4 0 0 0 0 0 0 0 95 100 100 17 99 99 91 90 92 96 37 6 27 4 15 29 29 6 5 27 30 0 0 0 0 5 0 1 6 0 0 0 13
0 0 0 0 0 0 0 4 3 0 0 0 0 0 0 0 0 100 100 100 100 100 97 15 67 59 14 84 13 5 0 0 0 0 0 0 7 0 0 0 0 0 0 0 4 0 0 0 0
0 0 0 0 0 0 0 0 0 0 0 0 0 0 0 0 0 10 54 71 99 66 64 57 100 98 81 5 3 1 0 0 0 0 0 0 0 0 0 0 0 0 0 0 0 0 0 0 0
0 0 0 0 0 0 0 0 0 0 0 0 0 0 0 0 0 0 0 0 0 0 0 0 0 15 3 0 0 0 0 0 0 0 0 0 0 0 0 0 0 0 0 0 0 0 0 0 0
0 0 0 0 0 0 0 0 0 0 0 0 0 0 0 0 0 0 0 0 4 4 4 22 100 67 1 0 0 0 0 0 0 0 0 0 0 0 9 66 20 2 6 4 0 0 1 0 4
0 0 0 0 0 0 0 0 0 0 0 0 0 0 0 0 0 0 0 0 0 0 0 1 0 0 0 1 17 35 0 0 0 0 0 0 54 100 100 100 100 100 78 30 11 5 0 3 1
0 0 0 0 0 0 0 0 0 0 0 0 0 0 0 0 0 0 0 0 0 0 0 0 0 0 27 58 33 13 0 6 18 26 29 90 100 100 100 100 100 100 79 74 37 14 5 6 4
0 0 0 0 0 0 0 0 0 0 0 0 0 0 0 0 0 0 0 0 0 0 0 0 0 0 0 0 0 73 21 44 32 12 8 18 10 83 100 100 100 100 100 100 100 95 96 21 10
0 0 0 0 0 0 0 0 0 0 0 0 0 0 0 0 0 0 0 0 1 0 0 0 0 0 0 0 3 35 29 86 57 31 96 100 92 70 84 22 86 100 85 100 100 90 45 77 20
0 0 0 0 0 0 0 0 0 0 0 0 0 0 0 0 0 5 0 0 0 1 0 0 0 0 0 20 100 100 87 20 18 40 91 97 90 67 87 82 100 100 100 100 100 100 99 100 93
0 0 0 0 0 0 0 1 5 1 0 0 0 0 0 0 0 0 0 2 0 15 0 0 0 0 0 27 32 100 100 100 100 87 54 100 61 87 42 100 100 100 100 100 93 98 39 32 31
5 0 0 0 0 0 0 2 99 4 0 0 0 1 5 1 0 0 0 0 0 3 4 0 0 0 0 0 34 99 100 100 100 54 44 94 35 60 83 38 2 0 5 5 5 5 5 3 13
4 0 0 0 0 0 3 0 49 3 1 0 0 1 5 1 0 0 0 0 0 0 0 0 0 0 0 0 0 0 34 52 58 91 100 98 70 39 9 1 0 0 0 0 0 0 0 0 0
4 2 2 0 0 2 7 0 30 60 0 0 0 0 0 5 0 5 5 1 0 0 0 0 0 0 0 0 0 0 0 0 0 0 0 0 0 0 0 0 0 0 0 0 0 0 0 0 0
0 3 0 0 0 1 0 0 69 9 4 0 0 0 1 0 0 0 0 6 5 5 5 5 0 0 0 0 0 0 0 0 0 0 0 0 0 0 0 0 0 0 0 0 0 0 0 0 0
100 7 65 5 5 3 4 5 5 5 5 2 0 0 0 0 0 1 6 6 5 5 68 32 4 3 0 0 2 0 0 4 2 0 0 0 0 0 0 0 0 0 0 0 0 0 0 0 0
52 100 100 44 5 3 1 4 5 5 9 0 0 0 0 0 0 0 5 5 76 84 95 100 27 4 59 7 49 31 64 34 17 5 0 0 0 0 0 0 0 0 0 0 0 0 0 0 0
100 39 100 100 92 92 5 8 78 37 5 0 0 0 0 0 0 3 5 4 16 93 100 89 45 5 91 5 94 80 100 98 85 8 0 0 0 0 0 0 0 0 0 0 0 0 0 0 0
60 5 7 92 5 5 5 1 10 8 5 0 0 0 0 29 99 75 4 3 34 100 7 5 54 95 77 98 100 100 100 87 56 5 3 1 0 0 0 0 0 0 0 0 0 0 0 0 0

GFSSGP_prec_cloud_279.txt.gz
Cloud_Cover
0 25 58 100 77 95 43 76 99 100 100 46 15 5 8 5 14 13 4 12 72 69 97 100 100 43 0 1 5 0 0 1 6 0 1 0 7 1 1 4 2 0 0 0 5 0 0 0 0
0 56 5 100 100 94 26 67 5 65 65 62 10 46 1 10 7 92 34 16 100 100 58 100 100 91 5 5 3 6 5 5 0 0 0 6 4 0 4 14 6 8 7 2 0 0 0 0 0
0 40 4 55 100 100 98 53 69 14 13 27 62 5 1 5 5 8 44 19 70 99 66 98 100 100 72 1 4 10 7 8 6 7 2 28 35 13 3 6 12 2 5 5 5 5 6 4 2
0 0 4 92 49 100 100 100 100 45 69 81 48 83 78 81 60 19 12 25 95 76 26 5 6 5 5 5 5 6 6 6 15 10 7 47 8 5 0 0 0 0 0 0 0 0 0 5 5
0 0 0 78 12 24 100 100 100 34 100 100 100 100 100 82 96 5 23 31 90 93 41 26 11 60 86 20 93 59 4 13 18 6 54 18 6 0 2 4 5 3 0 0 0 0 0 0 0
0 0 34 10 86 97 44 47 100 100 97 100 100 100 100 100 66 34 32 46 79 98 93 100 100 100 35 5 96 87 20 6 12 17 6 0 0 0 0 0 0 0 0 2 1 0 0 0 0
0 3 62 96 32 95 6 16 92 100 100 100 100 100 100 89 100 100 100 100 100 100 100 100 80 15 5 5 4 6 5 5 5 5 5 0 3 5 0 0 0 0 0 0 0 0 0 0 0
0 5 94 6 3 3 4 6 99 100 100 100 100 100 100 74 55 98 98 84 100 100 86 79 98 18 19 11 5 6 6 7 6 16 8 7 4 5 0 0 0 0 0 0 0 0 0 0 0
0 11 26 5 4 0 0 0 5 53 100 87 4 5 83 100 100 100 100 78 100 100 100 96 93 40 51 76 5 52 86 97 56 75 59 73 5 22 0 0 0 0 0 0 0 0 0 0 0
3 23 5 5 5 0 0 0 0 0 0 9 64 10 57 35 54 100 100 100 100 98 100 100 100 96 50 3 4 27 5 5 41 26 20 56 22 23 4 2 0 0 0 0 0 0 0 0 19
3 5 5 5 5 0 0 0 0 0 0 0 0 0 2 100 100 68 100 100 57 69 60 90 100 91 42 1 28 54 42 41 60 44 37 41 18 26 23 25 16 11 10 0 0 2 13 2 9
0 2 2 5 1 0 0 0 0 0 0 0 0 0 0 0 0 4 85 100 29 44 8 40 64 62 49 13 28 40 47 57 90 49 33 46 47 33 20 28 15 11 18 13 27 16 6 7 0
0 1 3 1 0 0 0 0 0 0 0 0 0 0 0 0 0 0 0 48 90 86 92 50 8 32 61 94 57 57 24 31 23 24 17 31 32 21 2 0 0 4 9 18 17 13 0 0 0
0 0 0 0 0 0 0 0 0 0 0 0 0 0 0 0 0 0 0 0 0 0 0 19 99 77 81 50 30 35 84 58 14 6 0 0 8 15 0 0 2 1 17 5 2 0 0 0 0
0 0 0 0 0 0 0 0 0 0 0 0 0 0 0 0 0 0 0 0 0 0 0 0 0 0 0 0 0 3 5 2 0 0 0 0 0 0 0 13 100 54 12 5 5 5 3 0 0
0 0 0 0 0 0 0 0 0 4 0 0 0 0 0 0 0 0 0 0 0 0 0 0 0 0 0 0 0 0 1 0 0 0 0 0 1 4 99 100 100 100 100 63 6 5 29 15 4
0 0 0 0 0 0 0 0 0 0 0 0 0 0 0 0 0 0 0 0 0 0 0 0 0 0 0 0 0 1 0 0 0 0 0 2 1 41 89 100 100 100 100 100 88 100 100 92 28
0 0 0 0 0 0 0 0 0 0 0 0 0 0 0 0 0 0 0 0 0 0 0 0 0 0 0 0 0 8 28 88 100 55 45 9 7 0 14 100 100 100 100 100 44 100 96 92 100
0 0 0 0 0 0 0 0 0 0 0 0 0 0 0 0 0 0 0 0 2 5 0 0 0 0 0 0 4 35 100 100 100 100 19 1 14 16 46 57 84 100 100 100 100 100 100 100 100
0 0 0 0 0 0 0 0 0 0 0 0 0 0 0 15 10 0 0 0 1 13 7 0 0 0 0 4 25 40 96 79 81 71 79 44 26 13 42 95 47 88 100 100 100 100 100 100 100
0 0 0 0 0 0 0 0 0 0 0 0 0 0 0 0 2 24 21 11 32 23 10 0 0 0 9 25 54 96 99 100 100 57 19 10 52 71 60 54 95 98 100 100 100 100 100 100 100
0 0 0 0 0 0 0 0 0 0 0 0 0 0 0 0 6 32 30 44 30 34 16 3 0 4 11 0 21 56 100 100 100 100 100 67 100 91 61 15 60 97 87 78 99 100 79 50 54
0 0 0 0 4 0 0 0 8 5 0 5 0 0 4 5 13 39 44 16 51 44 16 18 21 23 21 9 0 22 71 51 2 45 83 92 86 35 47 59 98 30 16 0 3 3 6 3 2
0 0 0 0 0 0 5 0 72 20 7 2 5 5 17 100 45 20 32 71 83 20 22 23 18 32 16 0 1 14 46 36 7 27 88 64 22 1 38 0 0 0 0 0 0 0 0 0 0
0 2 1 0 0 0 12 0 5 100 100 77 5 5 19 6 32 52 100 100 49 15 12 12 0 7 0 0 0 4 6 23 28 36 20 13 0 0 0 0 0 0 0 0 0 0 0 0 0
60 45 6 10 5 4 12 0 0 70 100 9 0 2 2 0 5 72 100 61 9 5 5 5 5 4 5 4 0 0 0 0 0 0 0 0 0 0 0 0 0 0 0 0 0 0 0 0 15
55 1 45 2 5 0 0 4 5 20 84 94 0 0 0 0 14 81 90 3 0 5 8 77 32 9 5 10 56 47 100 6 3 5 2 1 2 3 2 3 0 0 0 0 0 0 0 0 0
2 81 89 5 4 0 0 0 0 4 5 5 0 0 0 0 75 79 3 4 19 5 29 99 78 48 62 100 92 96 96 26 10 32 100 13 5 5 54 4 0 0 0 0 0 0 0 0 0
2 4 5 4 0 0 0 0 4 6 28 37 11 29 3 3 58 8 3 5 7 94 99 100 99 64 93 91 46 29 44 58 22 11 27 49 27 24 0 0 5 2 0 0 0 0 0 0 0
98 8 8 6 0 0 0 0 0 31 36 100 100 18 4 54 96 18 0 51 100 100 100 100 100 100 100 100 98 91 66 5 6 78 36 5 5 18 83 99 94 2 0 0 0 0 0 0 0

GFSSGP_prec_cloud_285.txt.gz
Cloud_Cover
0 5 5 3 27 11 16 100 100 100 100 100 100 100 100 100 100 100 91 100 100 100 99 49 36 16 0 4 1 4 13 34 8 0 0 0 0 4 1 2 0 0 12 2 10 11 5 2 0
0 5 2 2 2 63 38 89 100 100 100 100 100 100 100 100 100 100 100 100 100 100 85 35 39 12 4 7 5 3 1 3 4 0 0 1 5 6 0 5 10 7 6 10 0 0 0 0 0
0 4 4 0 2 5 14 16 21 100 94 63 100 100 100 100 100 100 100 100 100 54 66 15 28 11 5 33 97 6 5 2 4 9 11 10 10 7 2 16 19 14 0 0 0 0 0 0 0
0 4 12 5 0 5 80 5 61 6 33 76 34 100 100 100 100 97 40 16 5 5 10 77 6 6 2 0 0 3 0 3 3 15 15 18 8 15 0 1 0 0 0 0 0 0 0 0 0
0 3 57 49 0 2 100 46 99 100 100 100 88 12 35 6 8 5 5 4 4 5 2 26 82 8 3 2 5 3 8 21 5 1 2 18 8 5 2 0 0 0 0 0 0 0 0 0 0
0 1 6 98 0 67 88 100 100 100 100 100 100 17 65 7 5 5 9 5 5 2 5 9 50 5 18 54 84 90 76 36 5 2 4 5 2 0 0 0 0 4 11 14 7 3 0 0 0
0 0 43 46 0 19 50 8 99 100 74 39 5 28 47 14 5 21 8 25 5 5 6 76 93 68 78 63 100 72 62 52 50 5 5 3 0 0 0 0 5 5 5 5 5 0 2 0 0
0 0 5 5 7 0 13 62 5 94 100 54 99 100 94 97 8 20 5 5 6 9 5 6 6 8 90 50 32 15 6 38 5 5 5 5 4 0 1 2 0 0 1 3 5 5 0 0 0
0 0 1 2 3 0 19 32 6 1 0 0 0 57 100 100 100 100 54 41 98 100 96 88 94 36 44 65 29 71 22 34 18 6 16 0 0 0 0 0 0 0 0 2 5 1 0 0 0
0 0 4 4 0 1 5 5 0 0 0 0 0 0 2 11 58 100 90 100 79 90 89 76 62 94 96 33 12 5 5 5 4 2 0 0 0 2 0 0 0 0 0 0 0 0 0 0 0
0 0 5 5 0 0 0 4 0 0 0 0 0 0 0 0 1 1 2 7 22 72 100 92 88 100 94 23 5 97 100 55 36 5 0 0 0 0 0 0 0 0 0 0 0 0 0 0 0
0 0 0 5 0 0 0 1 0 0 0 4 0 0 0 0 0 0 0 0 0 0 18 100 45 88 83 92 96 100 69 55 7 7 4 5 5 4 0 0 0 0 0 0 0 0 0 0 0
0 0 4 5 3 0 0 0 0 0 0 0 0 0 0 0 0 0 0 0 0 0 0 0 0 0 25 81 0 35 80 65 5 5 0 0 0 0 0 0 0 1 5 3 0 2 0 0 0
0 0 0 5 0 0 0 0 0 0 0 0 0 0 0 0 0 0 0 0 0 0 0 0 0 2 0 0 0 0 0 0 0 0 0 0 0 0 0 0 8 29 5 5 5 5 5 5 4
0 0 0 5 0 0 0 0 0 0 0 0 0 0 0 0 0 0 0 0 0 0 0 0 0 2 0 0 0 0 0 0 0 0 0 0 0 0 0 2 2 19 99 54 7 5 4 5 5
0 0 0 0 0 0 0 0 0 0 0 0 0 0 0 0 0 0 0 0 0 0 0 0 0 0 0 0 0 0 0 0 0 0 1 3 33 50 5 5 4 10 6 4 5 11 46 100 100
0 0 0 0 0 0 0 0 0 0 0 0 0 0 0 0 0 0 0 0 0 0 0 0 0 0 0 0 0 0 0 0 0 1 5 5 14 31 77 5 52 99 66 59 100 100 100 100 100
0 0 0 0 0 0 0 0 0 0 0 0 0 0 0 0 0 0 0 0 0 0 0 0 0 0 1 0 0 0 0 45 4 12 14 14 13 4 24 37 83 100 100 100 100 58 48 98 100
0 0 0 0 0 0 0 0 0 0 0 0 0 0 4 5 0 0 0 0 0 0 0 0 0 0 0 0 0 13 14 43 61 96 55 55 63 57 36 3 31 19 24 32 85 5 6 25 7
0 0 0 0 0 0 0 0 0 0 0 0 2 5 5 5 0 0 0 0 0 0 0 0 0 0 0 0 0 4 4 68 80 96 89 68 62 61 43 35 32 44 12 27 25 42 12 8 9
0 0 0 0 0 0 0 0 0 0 0 0 0 0 0 0 0 0 0 0 0 0 2 5 5 1 1 3 11 79 84 100 96 72 66 51 57 3 36 74 2 3 0 0 1 0 0 0 18
0 0 0 0 0 0 0 0 0 0 0 0 0 0 0 0 0 0 0 0 0 0 9 34 5 0 0 0 2 0 4 8 59 45 76 72 2 20 23 0 0 0 0 0 0 0 0 0 0
0 0 0 0 0 0 0 0 0 0 0 0 0 0 0 0 0 0 0 0 0 7 5 5 0 0 18 5 1 9 10 37 68 54 26 99 41 25 0 0 0 0 0 0 0 0 0 0 0
0 0 0 0 0 0 0 0 0 0 0 0 0 0 2 5 5 0 4 17 30 16 9 2 31 85 46 53 70 100 100 97 28 42 2 77 22 0 0 0 0 0 0 0 0 0 0 0 0
0 0 0 0 0 0 0 0 0 1 5 1 0 0 0 1 3 4 5 6 79 61 63 57 100 100 99 100 100 100 100 100 94 81 43 20 7 5 0 0 0 0 0 0 0 0 0 0 0
0 0 0 0 0 0 0 0 2 5 7 77 3 0 0 5 10 7 8 5 96 100 100 93 100 100 100 100 100 100 100 13 12 26 5 69 5 16 19 0 0 0 0 0 0 0 0 0 0
4 0 0 0 0 0 0 0 0 0 0 2 2 0 0 1 4 5 5 15 100 100 99 73 93 100 100 100 100 83 100 46 100 99 81 49 5 5 5 0 0 0 0 0 0 0 0 0 0
0 0 0 0 0 0 0 0 0 0 0 1 5 5 5 4 5 60 71 76 100 100 98 96 88 95 100 100 6 100 86 100 72 23 49 48 29 8 7 1 0 0 0 0 0 0 2 3 0
0 0 0 0 0 0 0 0 0 0 0 5 62 100 43 4 1 5 39 100 100 100 100 100 77 100 100 99 40 60 99 91 44 98 100 46 48 94 5 12 0 0 0 0 0 1 3 3 2
0 0 0 0 0 0 0 1 0 0 0 0 0 5 7 95 12 18 100 100 100 100 100 100 100 100 100 100 100 100 100 100 96 99 55 100 100 58 100 100 83 82 4 3 4 5 3 5 2

GFSSGP_prec_cloud_288.txt.gz
Cloud_Cover
2 2 14 5 29 40 78 95 100 100 99 46 18 83 62 98 100 100 100 96 41 10 73 40 36 28 4 15 68 24 1 1 0 0 1 8 0 0 0 0 1 11 11 4 5 11 10 0 0
0 2 3 72 74 100 93 47 100 100 100 100 75 24 46 68 97 99 100 95 72 30 18 82 5 5 5 1 20 14 9 5 5 3 12 7 0 0 0 1 11 6 1 2 4 2 0 0 0
0 0 0 4 83 100 100 96 92 100 100 100 100 100 100 100 100 100 100 94 92 50 32 6 5 3 5 0 9 14 2 2 5 7 10 11 6 1 6 16 10 18 1 0 0 0 0 0 0
0 0 0 0 97 5 18 16 82 86 100 100 100 100 100 100 31 82 100 100 6 5 5 21 2 0 1 0 0 4 0 8 10 52 43 16 10 17 20 15 11 0 0 0 0 0 0 0 0
0 0 0 0 2 0 5 5 5 18 100 100 100 100 54 50 98 96 25 49 28 5 4 2 3 15 3 0 0 0 1 8 12 20 36 36 9 5 24 5 1 0 0 0 0 0 0 1 5
0 0 0 1 2 0 4 5 3 33 40 100 48 85 14 5 5 4 35 51 13 3 1 0 51 4 0 0 5 15 94 100 95 51 57 17 9 15 8 1 0 1 2 3 1 4 5 2 4
5 5 3 5 2 4 39 5 5 5 5 7 5 4 4 2 1 2 2 2 4 4 5 5 5 6 12 94 54 92 54 42 12 1 5 10 13 5 5 1 2 0 0 3 0 0 0 0 0
0 0 1 0 0 46 7 5 2 13 5 5 31 29 9 7 16 5 5 5 5 5 5 4 5 5 5 41 6 11 20 18 6 5 3 4 0 0 0 0 0 0 0 0 0 0 0 0 0
0 1 4 5 4 0 0 1 0 0 0 0 4 100 82 96 100 100 71 18 25 25 55 5 38 70 100 100 92 100 100 98 15 16 5 1 4 4 0 0 0 0 0 0 0 0 0 0 0
0 0 5 3 1 2 0 4 22 5 2 0 0 13 71 50 8 73 100 100 100 100 93 69 100 80 93 99 93 17 7 5 5 5 60 8 11 5 2 0 0 0 0 0 0 0 0 0 0
0 0 5 0 0 0 4 38 89 5 1 0 0 0 0 0 0 0 2 2 38 6 5 6 16 17 100 96 100 99 100 99 65 56 35 29 6 5 5 5 0 0 0 0 0 0 0 0 0
0 0 3 0 0 0 0 5 5 2 1 0 0 0 0 0 0 0 0 0 0 0 0 0 0 0 1 5 16 99 9 0 0 0 1 18 3 0 0 0 0 0 0 0 0 0 0 0 0
0 0 0 0 0 0 0 1 3 0 0 0 0 0 0 0 0 0 0 0 0 0 0 0 0 0 0 0 0 0 0 0 0 0 0 0 0 0 0 0 0 3 0 1 0 4 5 0 0
0 0 0 0 0 3 0 0 0 5 0 0 0 0 0 0 0 0 0 0 0 0 0 0 0 0 0 0 0 0 0 0 0 0 0 0 0 0 0 0 0 4 0 0 0 0 3 3 4
0 0 0 0 0 4 0 0 0 0 0 0 0 0 0 0 0 0 0 0 0 0 0 0 0 0 0 0 0 0 0 0 0 0 0 0 0 4 5 5 5 8 15 0 2 3 11 21 63
0 0 0 0 0 1 1 0 4 0 0 0 0 0 0 0 0 0 0 0 0 0 0 8 0 0 0 0 0 0 0 0 0 0 0 3 5 6 5 5 5 46 98 42 86 46 24 100 100
0 0 0 0 0 0 0 0 0 2 0 0 0 0 0 0 0 0 0 0 0 0 0 0 0 0 0 0 0 0 0 0 0 0 0 0 0 0 3 3 32 28 1 59 36 73 100 62 55
0 0 1 0 0 0 0 0 0 0 0 0 0 0 0 0 0 0 0 0 0 0 0 0 0 0 0 0 0 0 0 0 0 0 0 0 3 1 0 1 16 7 0 12 23 12 56 12 26
0 2 5 0 0 0 1 0 0 0 0 0 0 0 0 0 0 0 0 0 0 0 0 0 0 0 0 0 0 0 0 0 0 0 0 1 17 27 23 26 56 24 43 48 49 60 57 34 66
0 0 0 0 0 0 0 3 0 0 0 0 0 0 4 15 0 0 0 0 0 0 0 0 0 0 0 0 0 0 0 0 0 0 24 33 41 67 82 75 80 96 99 78 97 65 6 50 4
0 0 0 0 0 0 0 4 0 0 0 0 0 0 3 5 5 0 0 0 0 0 0 0 0 0 0 0 0 0 0 36 22 33 68 100 100 92 77 92 88 55 5 22 1 0 0 0 0
0 0 0 0 0 0 4 4 0 0 0 0 0 0 0 1 1 0 0 0 0 0 0 0 0 0 0 0 0 0 0 0 0 4 33 68 88 46 51 6 22 0 0 0 0 0 0 0 0
1 5 0 0 0 0 0 2 6 0 0 0 0 0 0 0 0 0 0 0 0 0 0 0 0 0 0 0 0 0 0 0 49 98 100 100 100 98 74 5 0 0 0 0 0 0 0 0 0
4 5 1 1 0 0 0 1 96 4 3 0 0 0 0 0 0 0 0 0 0 0 0 5 6 5 0 2 0 0 44 26 100 100 100 100 100 100 7 3 0 0 0 0 0 0 0 0 0
5 5 5 0 0 0 0 0 41 27 0 7 1 0 1 0 0 0 0 0 0 0 0 5 5 5 8 16 5 3 16 60 100 100 100 100 100 100 5 1 0 0 3 2 0 0 0 0 0
1 5 0 0 0 0 4 0 0 4 0 0 0 0 0 0 2 7 4 5 2 3 3 0 20 84 6 5 14 52 75 82 100 100 100 100 100 100 95 73 3 5 5 0 0 0 0 0 0
0 0 1 0 0 0 0 0 1 8 1 0 0 0 0 0 0 0 4 1 5 11 11 78 100 100 81 58 96 100 60 41 100 100 100 100 100 100 100 68 36 14 8 26 0 0 0 0 0
5 0 0 2 3 0 4 2 28 27 5 0 0 1 5 4 1 3 1 1 5 85 100 100 100 100 100 93 99 100 89 43 51 97 100 100 100 100 100 100 100 100 32 83 4 3 0 0 0
0 0 0 0 0 0 1 16 4 5 2 0 0 1 5 5 5 6 17 13 70 99 100 100 100 100 95 96 100 100 100 84 94 100 100 100 100 100 100 96 95 100 75 82 98 99 100 16 5
0 0 0 0 0 0 0 15 5 2 0 0 0 0 0 1 4 5 6 58 98 97 100 100 100 100 100 100 100 99 100 100 100 56 75 57 100 100 100 95 98 100 100 99 63 67 65 86 30

GFSSGP_prec_cloud_291.txt.gz
Cloud_Cover
4 4 4 0 5 100 100 88 100 100 96 100 100 93 91 100 100 100 46 30 42 65 13 5 56 5 4 0 4 6 33 67 23 1 1 9 8 4 0 0 23 10 4 16 11 2 0 0 0
0 4 5 3 81 100 100 59 100 100 100 88 54 26 76 95 20 89 67 78 21 13 9 43 5 2 5 5 3 13 3 18 20 48 13 12 5 4 0 0 2 21 19 0 0 0 0 0 0
0 0 5 46 54 55 95 71 30 100 100 100 100 86 88 45 96 12 5 5 5 49 95 9 5 4 0 7 5 5 12 25 9 5 19 17 13 0 0 9 13 10 3 0 0 0 0 0 0
0 0 0 99 100 85 68 100 75 42 100 100 100 100 100 100 100 100 100 25 92 91 6 5 4 5 2 4 0 7 0 8 11 0 8 11 5 11 11 17 3 0 0 0 0 0 0 0 0
0 0 0 1 100 100 19 98 7 88 100 99 100 100 100 100 100 100 100 100 100 69 30 38 35 5 4 0 5 2 7 14 3 4 9 14 97 100 5 4 0 1 1 1 0 0 0 1 0
3 0 0 7 75 4 1 1 5 28 5 83 97 100 100 100 100 100 81 6 32 77 89 73 57 63 5 0 3 2 1 4 16 94 100 100 67 12 4 5 5 5 5 0 1 0 0 3 2
27 6 4 68 100 96 12 4 66 99 39 3 5 10 100 100 100 98 45 12 0 2 1 11 7 9 11 4 5 5 57 5 6 12 88 96 30 3 0 0 0 0 0 0 0 0 0 0 0
5 4 8 29 86 78 69 1 100 98 42 5 35 4 15 79 46 36 6 5 4 3 43 7 62 62 39 40 6 5 53 18 6 5 70 90 78 5 5 0 0 0 0 0 0 0 0 0 0
44 5 11 52 70 100 18 3 10 78 18 0 0 0 8 2 5 22 5 5 22 89 65 100 53 29 58 57 5 23 74 100 100 100 54 46 4 3 6 5 4 0 0 0 0 0 0 0 0
3 2 8 100 54 68 8 2 100 0 1 1 0 0 10 84 39 76 100 70 70 100 100 100 100 100 100 100 100 81 65 87 65 55 6 16 76 16 5 5 5 0 0 0 0 0 0 0 0
3 0 61 88 5 0 0 0 100 12 66 7 6 0 0 0 0 0 26 40 10 0 0 14 1 0 27 40 5 22 16 9 6 33 10 15 1 0 0 0 0 0 0 0 0 0 0 30 39
5 0 10 93 70 0 0 2 89 87 52 100 73 0 0 0 0 0 0 0 0 0 0 0 0 0 0 0 0 0 0 0 4 27 0 0 0 0 0 0 0 0 0 18 1 7 24 2 6
0 0 0 5 2 0 0 0 3 61 4 20 5 0 0 0 0 0 0 0 0 0 0 0 0 0 0 0 0 0 0 0 0 0 0 0 0 0 0 0 0 0 5 4 7 36 16 31 50
0 0 0 5 3 2 0 4 0 0 5 0 0 0 0 0 0 0 0 0 0 0 0 0 0 0 0 0 0 0 0 0 0 0 0 0 0 0 0 0 2 3 0 4 12 82 16 11 50
0 0 0 0 0 0 0 0 0 2 5 0 0 0 0 0 0 0 0 0 0 0 0 0 0 0 0 0 0 0 0 0 0 0 0 0 0 0 0 3 8 18 31 11 4 51 77 98 88
0 0 0 0 0 0 0 0 5 4 5 5 7 5 1 0 0 0 0 0 0 0 0 0 0 0 0 0 0 0 0 0 0 0 0 0 0 0 0 0 8 47 30 39 76 100 100 100 99
0 1 2 0 0 0 0 0 2 68 79 0 21 5 5 3 0 0 0 0 0 0 0 0 0 0 0 0 0 0 0 0 0 0 0 0 0 0 0 0 43 100 53 96 89 72 100 100 100
22 12 5 2 4 0 4 0 0 6 34 30 0 0 3 5 4 0 0 0 0 0 0 0 0 0 0 0 0 0 0 0 0 0 0 0 8 11 8 10 40 25 96 100 100 32 11 13 95
10 5 5 2 2 5 2 1 0 5 5 5 0 0 0 0 5 5 0 0 0 0 0 0 0 0 0 0 0 0 0 0 0 0 0 11 8 50 35 12 23 23 25 14 29 12 74 31 100
5 5 3 2 0 16 5 18 6 5 5 2 3 0 0 0 0 7 49 0 0 0 0 0 0 0 0 0 0 0 0 0 0 7 12 25 42 33 94 64 39 6 3 58 16 41 2 30 7
0 2 0 5 5 7 41 39 100 34 5 1 1 0 0 0 1 0 4 56 0 0 0 0 0 0 0 0 0 0 0 0 0 22 56 73 64 42 39 46 68 39 22 96 25 1 0 0 0
6 5 18 5 5 84 51 100 100 95 69 5 5 4 0 0 0 0 0 4 0 0 0 0 0 0 0 0 0 0 0 0 0 1 31 62 95 53 100 100 100 42 12 5 3 0 0 0 0
8 4 7 5 5 5 5 19 100 53 46 6 5 5 1 0 1 3 1 0 49 0 0 0 0 0 0 0 0 0 0 0 0 7 14 30 97 72 100 54 41 30 81 5 0 0 0 0 0
5 5 5 5 5 3 5 2 99 96 5 72 26 44 19 35 63 72 33 4 4 3 0 0 0 0 0 0 0 0 0 0 4 30 54 96 74 100 100 19 27 89 100 5 0 0 1 0 0
3 5 3 5 6 5 58 72 64 89 100 41 5 5 2 0 3 2 42 47 2 0 3 8 11 32 17 4 4 5 0 0 5 4 32 51 41 100 100 100 100 99 100 62 58 5 5 1 0
0 0 5 5 5 6 89 100 100 56 9 0 1 0 0 0 0 0 0 0 11 11 0 0 5 41 76 97 81 6 32 15 32 44 23 1 6 100 100 100 100 100 94 78 91 53 5 5 0
5 5 10 4 5 5 17 6 51 98 11 5 0 0 0 0 0 0 0 0 0 69 21 9 67 67 98 100 100 100 100 100 80 60 12 85 100 100 100 100 100 100 100 88 99 100 89 7 7
5 5 4 4 4 59 92 93 99 60 6 61 97 5 5 5 5 0 0 0 17 12 96 52 5 37 35 100 100 100 100 100 92 80 100 100 100 100 100 100 100 100 100 100 100 100 92 8 45
0 0 0 5 2 0 30 100 16 14 16 58 97 75 5 4 5 5 5 17 73 17 98 97 96 38 61 100 100 100 100 100 100 96 100 100 100 100 100 100 76 46 100 100 100 100 100 100 100
0 0 0 0 0 0 0 12 6 50 22 0 0 0 1 22 96 5 12 5 100 100 96 96 90 77 100 100 100 100 100 100 100 100 100 100 100 100 100 100 100 100 100 100 100 100 100 100 100

GFSSGP_prec_cloud_297.txt.gz
Cloud_Cover
0 7 13 0 47 99 100 100 100 76 100 99 0 11 67 3 0 2 8 41 5 36 100 10 37 34 25 98 100 99 5 5 0 0 3 4 0 5 0 0 0 7 4 0 0 0 0 0 0
0 85 28 4 4 68 100 100 100 87 31 88 58 62 13 1 9 42 61 95 100 100 100 10 0 5 5 86 100 37 4 2 1 0 2 0 0 5 0 0 2 16 1 0 0 0 0 0 0
0 63 24 5 95 89 100 100 100 100 93 100 100 100 40 19 94 46 5 12 58 28 5 4 5 0 20 96 5 5 4 0 0 9 5 0 0 0 0 0 0 0 0 0 0 0 0 0 0
0 37 11 100 100 42 75 100 100 100 100 100 100 100 100 37 96 94 57 4 0 5 5 3 54 99 88 99 5 5 5 5 4 13 5 0 0 0 0 3 0 2 4 5 9 7 4 0 0
0 3 64 87 96 54 100 59 100 100 94 100 100 100 100 100 100 96 94 46 52 14 36 100 100 100 100 95 62 4 3 0 0 0 9 5 5 5 5 5 65 100 92 48 5 3 0 0 4
0 0 61 18 54 87 100 54 100 100 100 100 85 100 100 100 100 100 100 100 100 100 100 100 100 100 100 90 16 3 0 0 0 1 4 1 1 2 3 5 40 27 100 53 5 0 5 0 0
0 0 52 2 85 90 54 24 100 100 100 100 95 97 43 60 100 100 100 100 100 100 100 100 100 100 100 100 61 1 2 38 2 4 3 1 6 1 0 78 100 36 6 6 6 1 0 0 0
0 0 0 6 68 100 100 26 90 100 100 46 99 68 87 95 66 98 100 100 100 100 100 100 100 100 100 100 92 24 4 6 5 13 4 88 99 98 100 23 5 1 1 2 0 0 0 0 0
0 0 0 3 14 100 98 53 98 98 100 100 98 79 62 94 15 0 0 7 52 77 99 100 100 100 100 100 95 85 5 51 59 98 27 5 2 5 4 0 0 0 0 0 0 0 0 0 0
0 0 0 0 82 92 48 99 45 34 84 100 86 60 55 100 100 7 0 0 0 0 1 47 98 100 100 71 16 9 9 5 0 2 0 5 0 0 0 0 0 0 0 0 0 0 0 0 0
0 0 0 0 8 78 100 95 100 67 12 42 100 100 86 87 1 0 0 0 0 0 0 0 5 4 5 5 4 6 5 2 0 0 0 0 0 0 0 0 0 0 0 0 0 0 0 0 0
0 0 5 0 0 14 94 65 97 10 0 0 66 100 100 100 100 81 2 0 0 0 0 0 0 0 0 0 0 0 0 0 0 0 0 0 0 0 0 0 0 0 0 0 0 1 8 40 4
0 0 1 5 0 4 1 26 46 5 1 13 78 98 100 100 100 76 100 34 0 0 0 0 0 0 0 0 0 0 0 0 0 0 0 0 0 0 0 0 0 0 0 0 0 0 0 94 7
0 0 0 0 0 2 4 0 0 0 0 3 40 64 100 100 91 83 96 18 0 0 0 0 0 0 0 0 0 0 0 0 0 0 0 0 0 0 0 0 0 0 0 0 0 0 48 38 10
0 0 0 0 0 0 0 1 0 21 5 2 6 68 2 100 99 100 53 6 2 0 0 0 0 0 0 0 0 0 0 0 0 0 0 0 0 0 0 0 0 0 0 0 85 5 30 92 96
5 1 0 0 0 0 0 0 0 42 22 31 65 51 1 4 100 86 23 5 0 0 0 0 0 0 0 0 0 0 0 0 0 0 0 0 0 0 0 0 0 0 0 0 60 14 0 52 2
33 5 3 1 0 0 0 0 0 2 36 31 93 87 7 1 5 3 0 0 0 0 0 0 0 0 0 0 0 0 0 0 0 0 0 0 0 0 0 0 0 0 0 0 0 0 0 0 0
0 6 93 5 2 0 0 0 0 3 5 61 94 100 96 91 98 2 0 0 0 0 0 0 0 0 0 0 0 0 0 4 21 0 0 0 0 0 0 0 0 0 0 0 0 0 0 0 0
0 0 0 0 0 0 5 5 5 4 5 55 50 100 100 100 54 42 0 0 0 0 0 0 0 0 0 0 0 60 100 100 100 100 100 39 0 0 0 0 0 0 0 0 0 0 0 5 0
0 0 0 0 5 5 5 53 100 16 5 5 16 51 100 100 100 90 13 2 2 2 0 0 0 0 0 0 100 100 100 100 100 100 100 100 99 0 0 0 0 0 0 0 0 0 1 6 5
0 0 0 2 5 5 79 100 100 100 24 95 2 23 22 4 65 96 27 17 70 39 5 5 46 5 5 22 100 100 100 100 100 100 100 100 100 91 0 0 0 0 0 5 0 0 0 30 20
5 5 1 5 5 40 6 96 100 32 8 0 0 0 0 2 5 5 5 4 0 3 69 99 88 43 99 100 100 100 100 100 100 100 100 100 100 100 97 3 54 0 0 0 0 0 0 29 8
100 12 5 21 14 29 95 82 93 23 4 3 4 5 5 5 5 4 4 0 0 0 35 46 100 100 100 100 100 100 100 100 100 100 100 100 100 100 100 2 10 0 0 0 0 1 3 5 5
100 100 66 5 18 100 25 26 5 5 5 5 5 5 5 9 13 9 1 0 0 0 0 0 62 100 100 100 100 100 100 100 100 100 100 100 100 100 100 34 74 13 30 3 4 0 18 5 1
56 47 100 19 13 100 21 36 9 4 3 3 3 4 41 5 5 11 80 19 5 0 0 0 57 100 100 100 100 100 100 100 100 100 100 100 100 100 100 66 100 98 86 100 92 76 64 5 0
2 5 27 97 100 100 100 100 98 62 31 4 53 64 5 5 9 94 100 28 5 5 0 0 100 100 100 100 100 100 100 100 100 100 100 100 100 100 100 100 100 100 100 100 100 100 44 3 5
1 0 39 97 92 100 100 100 93 8 32 47 90 88 89 5 5 5 96 100 6 4 0 0 100 100 100 100 100 100 100 100 100 100 100 100 100 100 100 100 100 100 100 100 100 100 92 5 6
100 96 7 5 5 92 100 12 6 4 4 5 5 5 33 100 100 100 100 100 41 5 0 76 100 100 100 100 100 100 100 100 100 100 100 100 100 100 100 100 100 100 100 100 100 100 98 74 6
100 100 90 25 13 100 100 100 35 5 3 0 0 1 1 4 57 5 35 4 0 1 0 20 100 100 100 100 100 100 100 100 100 100 100 100 100 100 100 100 100 100 100 100 100 100 79 45 5
100 100 100 100 100 100 100 44 2 0 1 1 5 6 5 0 0 7 64 36 5 4 1 0 44 100 100 100 100 100 100 100 100 100 100 100 100 100 100 100 100 100 100 100 100 100 100 59 5